Location: Les Coudrans
(46.1056°N, 1.1158°W)
Time: 17:50:42
(UTC+00:00)

FALCON 9 DEB - Pass Details

Date: 03 March 2021
Orbit: 424 x 435 km, 53.0° (Epoch: 14 April)

Event Time Altitude Azimuth Distance (km) Brightness Sun altitude
Rises 19:55:27 0° 298° (WNW) 2,402 8.3 -21.7°
Reaches altitude 10° 19:57:35 10° 294° (WNW) 1,529 7.0 -22.1°
Enters shadow 20:00:34 49° 243° (WSW) 563 3.9 -22.6°
